User: anonymous   Login
Location: Hastringsfeld
(50.9620°N, 10.4787°E)
Time: 22:17:00
(UTC+00:00)
Language:

Thor Agena Rocket - Orbit

View from above orbital plane
View from above orbital plane
View from above satellite
View from above satellite

Ground track
Ground track

The orbit data is extracted from the following two-line orbital elements,

1 00733U 64002A   24055.60240474  .00000582  00000-0  22869-3 0  9993
2 00733  99.0604  19.7529 0032362 264.8220  94.9269 14.33075014131682
Epoch (UTC): 24 February 2024 14:27:27
Eccentricity: 0.0032362
inclination: 99.0604°
perigee height: 758 km
apogee height: 804 km
right ascension of ascending node: 19.7529°
argument of perigee: 264.8220°
revolutions per day: 14.33075014
mean anomaly at epoch: 94.9269°
orbit number at epoch: 13168

The dashed part of the orbit path shows where the satellite is in the earth's shadow,  

DLR